This is the latest recevied weather packets stored in our database for station/object DC4AT. If no packets are shown the sender has not sent any weather packets the latest 10 day(s).
| Time | Temp. | Humidity | Pressure | Rain* | Wind** | Luminosity | Snow |
|---|---|---|---|---|---|---|---|
| 1778061811 | 11.67° C | 82% | 1005.1 hPa | 0 mm | - | 81 W/m² | - |
| 1778061210 | 11.67° C | 81% | 1005.1 hPa | 0 mm | - | 70 W/m² | - |
| 1778060610 | 11.67° C | 80% | 1005 hPa | 0 mm | - | 84 W/m² | - |
| 1778060011 | 11.67° C | 80% | 1005 hPa | 0 mm | - | 76 W/m² | - |
| 1778059411 | 11.67° C | 80% | 1004.9 hPa | 0 mm | - | 79 W/m² | - |
| 1778058810 | 11.67° C | 80% | 1004.9 hPa | 0.25 mm | - | 63 W/m² | - |
| 1778058211 | 11.67° C | 80% | 1004.8 hPa | 0.25 mm | - | 84 W/m² | - |
| 1778057611 | 11.67° C | 80% | 1004.8 hPa | 0.25 mm | - | 88 W/m² | - |
| 1778057011 | 11.67° C | 79% | 1004.8 hPa | 0.25 mm | - | 70 W/m² | - |
| 1778056411 | 11.67° C | 79% | 1004.8 hPa | 0.25 mm | - | 142 W/m² | - |
| 1778055811 | 11.11° C | 79% | 1004.7 hPa | 0.25 mm | - | 183 W/m² | - |
| 1778055211 | 11.11° C | 79% | 1004.8 hPa | 0.25 mm | - | 151 W/m² | - |
| 1778054611 | 11.11° C | 79% | 1004.7 hPa | 0.25 mm | - | 144 W/m² | - |
| 1778054011 | 11.11° C | 79% | 1004.7 hPa | 0.25 mm | - | 149 W/m² | - |
| 1778053411 | 11.11° C | 79% | 1004.7 hPa | 0.25 mm | - | 76 W/m² | - |
| 1778052811 | 10.56° C | 80% | 1004.6 hPa | 0.25 mm | - | 113 W/m² | - |
| 1778052211 | 10.56° C | 79% | 1004.7 hPa | 0.25 mm | - | 60 W/m² | - |
| 1778051611 | 10.56° C | 80% | 1004.6 hPa | 0.25 mm | - | 62 W/m² | - |
| 1778051011 | 10.56° C | 80% | 1004.7 hPa | 0 mm | - | 54 W/m² | - |
| 1778050411 | 10.56° C | 80% | 1004.8 hPa | 0 mm | - | 46 W/m² | - |
| 1778049811 | 10.56° C | 80% | 1004.6 hPa | 0 mm | - | 42 W/m² | - |
| 1778049211 | 10.56° C | 80% | 1004.5 hPa | 0 mm | - | 42 W/m² | - |
| 1778048611 | 10.56° C | 80% | 1004.6 hPa | 0 mm | - | 39 W/m² | - |
| 1778048011 | 10.56° C | 80% | 1004.6 hPa | 0 mm | - | 28 W/m² | - |
| 1778047411 | 10.56° C | 80% | 1004.6 hPa | 0 mm | - | 19 W/m² | - |
* Rain latest hour (hover to see other rain measurements)
** Current wind speed in m/s (hover to see current wind gust speed)